GW2812 Weather Reports


time (UTC)temp
F
wind
direction
speed
knots
gust
knots
rain 1hr
in
rain 24hr
in
rain mn
in
humidity
%
barometer
mb
20260506104114 55 200 4.3 18.2 0.00 0.00 0.00 90 1010.9
20260506103611 55 196 13.9 21.7 0.00 0.00 0.00 90 1010.6
20260506103108 55 205 11.3 16.5 0.00 0.00 0.00 90 1010.7
20260506102606 55 201 7.0 16.5 0.00 0.00 0.00 90 1010.5
20260506102103 55 177 11.3 17.4 0.00 0.00 0.00 90 1010.6
20260506101600 55 190 12.2 18.2 0.00 0.00 0.00 91 1010.8
20260506101057 55 224 12.2 15.6 0.00 0.00 0.00 91 1010.5
20260506100555 55 191 12.2 16.5 0.00 0.00 0.00 91 1010.5
20260506100053 55 202 7.8 19.1 0.00 0.00 0.00 91 1010.5
20260506095551 55 191 13.0 18.2 0.00 0.00 0.00 91 1010.6
20260506095048 55 197 11.3 19.1 0.00 0.00 0.00 91 1010.4
20260506094545 55 188 12.2 20.9 0.00 0.00 0.00 91 1010.3
20260506094043 55 194 13.9 17.4 0.00 0.00 0.00 91 1010.6
20260506093541 55 193 13.9 23.5 0.00 0.00 0.00 91 1010.6
20260506093038 55 190 7.8 17.4 0.00 0.00 0.00 91 1010.4
20260506092536 55 201 15.6 17.4 0.00 0.00 0.00 91 1010.8
20260506092033 55 184 10.4 19.1 0.00 0.00 0.00 90 1010.5
20260506091531 55 192 11.3 15.6 0.00 0.00 0.00 90 1010.7
20260506091028 55 176 11.3 14.8 0.00 0.00 0.00 90 1010.6
20260506090526 55 183 10.4 17.4 0.00 0.00 0.00 90 1010.8
20260506090022 55 207 9.6 19.1 0.00 0.00 0.00 90 1010.7
20260506085519 55 174 10.4 14.8 0.00 0.00 0.00 90 1010.8
20260506085015 55 195 10.4 18.2 0.00 0.00 0.00 90 1010.8
20260506084512 55 198 11.3 14.8 0.00 0.00 0.00 90 1010.8
20260506084008 55 202 7.8 14.8 0.00 0.00 0.00 90 1011.0
20260506083506 55 200 6.1 14.8 0.00 0.00 0.00 89 1010.9
20260506083003 55 189 10.4 17.4 0.00 0.00 0.00 89 1010.8
20260506082500 55 198 9.6 16.5 0.00 0.00 0.00 89 1010.8
20260506081955 55 202 12.2 17.4 0.00 0.00 0.00 89 1011.0
20260506081454 55 207 8.7 19.1 0.00 0.00 0.00 89 1011.0
20260506080951 55 185 14.8 20.9 0.00 0.00 0.00 89 1010.9
20260506080448 55 187 11.3 15.6 0.00 0.00 0.00 89 1010.8
20260506073431 55 210 9.6 16.5 0.00 0.00 0.00 88 1011.2
20260506072929 55 198 7.0 13.9 0.00 0.00 0.00 88 1011.1
20260506072426 55 202 13.9 18.2 0.00 0.00 0.00 88 1011.2
20260506071924 55 192 7.0 13.9 0.00 0.00 0.00 88 1011.3
20260506071422 55 207 12.2 19.1 0.00 0.00 0.00 88 1011.3
20260506070918 55 208 7.0 14.8 0.00 0.00 0.00 88 1011.0
20260506070415 56 215 12.2 20.9 0.00 0.00 0.00 88 1011.3
20260506062352 56 210 9.6 19.1 0.00 0.00 0.00 87 1011.1
20260506061848 56 210 15.6 26.9 0.00 0.00 0.00 87 1011.0
20260506061345 56 193 10.4 20.9 0.00 0.00 0.00 87 1011.1
20260506060843 56 209 10.4 17.4 0.00 0.00 0.00 87 1011.2
20260506060341 56 197 10.4 20.9 0.00 0.00 0.00 87 1011.2
20260506051313 57 202 8.7 19.1 0.00 0.00 0.00 85 1011.2
20260506050810 57 190 13.0 25.2 0.00 0.00 0.00 85 1011.1
20260506050308 57 203 11.3 20.9 0.00 0.00 0.00 85 1011.3
20260506044758 57 186 12.2 20.9 0.00 0.00 0.00 84 1011.3
20260506044256 57 200 13.0 19.1 0.00 0.00 0.00 84 1011.6
20260506043753 57 215 14.8 20.9 0.00 0.00 0.00 84 1011.5
20260506043250 57 192 13.0 22.6 0.00 0.00 0.00 84 1011.5
20260506042749 57 202 10.4 23.5 0.00 0.00 0.00 84 1011.5
20260506042247 57 187 10.4 22.6 0.00 0.00 0.00 84 1011.3
20260506041745 57 200 7.8 17.4 0.00 0.00 0.00 84 1011.3
20260506041242 57 195 10.4 20.9 0.00 0.00 0.00 84 1011.3
20260506040739 57 208 13.9 24.3 0.00 0.00 0.00 83 1011.2
20260506040236 57 188 11.3 23.5 0.00 0.00 0.00 83 1011.6
20260506035733 57 192 9.6 28.7 0.00 0.00 0.00 83 1011.7
20260506035230 57 200 7.8 22.6 0.00 0.00 0.00 83 1011.4
20260506034727 57 204 14.8 20.0 0.00 0.00 0.00 83 1011.4
20260506034224 57 195 14.8 17.4 0.00 0.00 0.00 82 1011.4
20260506033721 57 193 14.8 20.0 0.00 0.00 0.00 82 1011.2
20260506033218 57 210 12.2 17.4 0.00 0.00 0.00 82 1011.2
20260506032715 58 209 20.0 22.6 0.00 0.00 0.00 82 1011.4
20260506032212 58 238 11.3 17.4 0.00 0.00 0.00 82 1011.4
20260506031708 58 180 7.0 20.0 0.00 0.00 0.00 82 1011.1
20260506031206 58 203 13.0 25.2 0.00 0.00 0.00 81 1011.3
20260506030704 58 209 11.3 23.5 0.00 0.00 0.00 81 1011.3
20260506030201 58 205 8.7 20.0 0.00 0.00 0.00 81 1011.4
20260506025657 58 195 9.6 24.3 0.00 0.00 0.00 82 1011.4
20260506025154 58 192 19.1 29.5 0.00 0.00 0.00 82 1011.0
20260506024646 58 200 13.9 20.9 0.00 0.00 0.00 81 1011.4
20260506024142 59 207 8.7 20.0 0.00 0.00 0.00 81 1011.3
20260506023638 59 206 13.0 20.9 0.00 0.00 0.00 81 1011.2
20260506023136 58 205 7.8 22.6 0.00 0.00 0.00 82 1011.3
20260506022633 58 205 12.2 25.2 0.00 0.00 0.00 82 1011.4
20260506022130 58 211 15.6 19.1 0.00 0.00 0.00 82 1011.3
20260506021628 58 213 11.3 22.6 0.00 0.00 0.00 82 1011.2
20260506021125 58 208 13.0 23.5 0.00 0.00 0.00 82 1011.5
20260506020622 58 193 14.8 20.0 0.00 0.00 0.00 82 1011.5
20260506020119 58 215 10.4 20.9 0.00 0.00 0.00 81 1011.4
20260506015617 58 210 8.7 20.9 0.00 0.00 0.00 81 1011.3
20260506015114 58 215 15.6 20.0 0.00 0.00 0.00 81 1011.3
20260506014612 58 199 7.0 25.2 0.00 0.00 0.00 80 1011.2
20260506014107 58 203 13.0 15.6 0.00 0.00 0.00 80 1011.2
20260506013605 59 208 8.7 18.2 0.00 0.00 0.00 80 1010.9
20260506013102 59 194 9.6 25.2 0.00 0.00 0.00 79 1011.0
20260506012558 59 193 8.7 21.7 0.00 0.00 0.00 79 1011.1
20260506012054 59 194 10.4 20.0 0.00 0.00 0.00 79 1011.1
20260506011553 59 209 13.0 18.2 0.00 0.00 0.00 79 1011.2
20260506011048 59 213 8.7 19.1 0.00 0.00 0.00 79 1011.1
20260506010548 59 210 11.3 20.0 0.00 0.00 0.00 78 1011.1
20260506010044 59 199 13.9 21.7 0.00 0.00 0.00 78 1011.0
20260506005541 59 191 8.7 20.9 0.00 0.00 0.00 78 1011.0
20260506005037 59 209 14.8 19.1 0.00 0.00 0.00 78 1011.0
20260506004535 59 211 14.8 21.7 0.00 0.00 0.00 78 1010.9
20260506004031 59 205 19.1 26.1 0.00 0.00 0.00 77 1010.8
20260506003528 60 201 16.5 20.0 0.00 0.00 0.00 77 1010.8
20260506003024 60 200 14.8 24.3 0.00 0.00 0.00 76 1010.7
20260506002520 60 198 15.6 26.1 0.00 0.00 0.00 76 1010.6
20260506002016 60 208 16.5 20.9 0.00 0.00 0.00 77 1010.3
20260506001512 60 201 17.4 23.5 0.00 0.00 0.00 77 1010.5
20260506001010 60 202 12.2 24.3 0.00 0.00 0.00 77 1010.3
20260506000507 60 197 12.2 26.1 0.00 0.00 0.00 76 1010.3
20260506000004 60 200 10.4 24.3 0.00 0.00 0.00 76 1010.1
20260505235502 61 203 13.0 26.9 0.00 0.00 0.00 75 1010.0
20260505234958 60 201 13.9 19.1 0.00 0.00 0.00 76 1010.2
20260505234456 60 183 15.6 20.9 0.00 0.00 0.00 76 1010.0
20260505233952 60 199 15.6 21.7 0.00 0.00 0.00 76 1009.7
20260505233450 60 220 7.8 26.1 0.00 0.00 0.00 76 1009.7
20260505232947 60 201 8.7 20.0 0.00 0.00 0.00 77 1009.6
20260505232445 60 190 10.4 18.2 0.00 0.00 0.00 77 1009.5
20260505231942 60 203 9.6 16.5 0.00 0.00 0.00 77 1009.5
20260505231439 60 204 10.4 20.9 0.00 0.00 0.00 77 1009.4
20260505230938 60 204 12.2 24.3 0.00 0.00 0.00 77 1009.2
20260505230435 60 185 11.3 25.2 0.00 0.00 0.00 77 1009.4
20260505225931 60 186 6.1 20.0 0.00 0.00 0.00 77 1009.4
20260505225428 60 207 8.7 19.1 0.00 0.00 0.00 77 1009.3
20260505224924 60 196 7.8 16.5 0.00 0.00 0.00 76 1009.4
20260505224421 60 206 14.8 22.6 0.00 0.00 0.00 77 1009.2
20260505223918 60 211 14.8 19.1 0.00 0.00 0.00 77 1009.1
20260505223415 60 189 16.5 21.7 0.00 0.00 0.00 77 1009.3
20260505222912 60 199 13.9 29.5 0.00 0.00 0.00 77 1008.8
20260505222408 60 193 8.7 26.9 0.00 0.00 0.00 77 1009.1
20260505221904 60 198 7.8 19.1 0.00 0.00 0.00 76 1009.5
20260505221402 60 194 11.3 24.3 0.00 0.00 0.00 76 1009.3
20260505220858 61 189 12.2 21.7 0.00 0.00 0.00 75 1009.2
20260505220355 61 207 17.4 21.7 0.00 0.00 0.00 75 1009.0
20260505215853 60 197 9.6 20.0 0.00 0.00 0.00 75 1008.9
20260505215351 61 204 19.1 23.5 0.00 0.00 0.00 75 1009.2
20260505214849 61 200 7.8 22.6 0.00 0.00 0.00 75 1009.1
20260505214346 61 196 14.8 20.0 0.00 0.00 0.00 75 1009.2
20260505213843 61 188 8.7 22.6 0.00 0.00 0.00 76 1008.8
20260505213341 60 183 17.4 24.3 0.00 0.00 0.00 76 1008.9
20260505212837 61 204 13.0 20.9 0.00 0.00 0.00 75 1008.9
20260505212334 61 186 12.2 29.5 0.00 0.00 0.00 74 1008.6
20260505211830 62 182 13.9 20.9 0.00 0.00 0.00 74 1008.6
20260505211328 61 192 8.7 23.5 0.00 0.00 0.00 74 1008.7
20260505210824 62 194 13.0 22.6 0.00 0.00 0.00 74 1008.6
20260505210321 61 199 6.1 18.2 0.00 0.00 0.00 75 1008.7
20260505205818 61 218 13.9 20.9 0.00 0.00 0.00 75 1008.7
20260505205316 60 198 13.9 20.9 0.00 0.00 0.00 76 1008.8
20260505204812 61 177 13.0 24.3 0.00 0.00 0.00 75 1008.6
20260505204311 61 172 7.8 19.1 0.00 0.00 0.00 76 1008.8
20260505203808 60 201 19.1 22.6 0.00 0.00 0.00 76 1008.6
20260505203304 60 180 11.3 22.6 0.00 0.00 0.00 76 1008.6
20260505202800 61 190 11.3 17.4 0.00 0.00 0.00 76 1008.6
20260505202257 61 189 10.4 26.9 0.00 0.00 0.00 76 1008.8
20260505201753 61 188 11.3 23.5 0.00 0.00 0.00 76 1008.7
20260505201251 61 184 11.3 20.9 0.00 0.00 0.00 76 1008.7
20260505200749 61 192 13.9 20.0 0.00 0.00 0.00 76 1008.7
20260505200246 61 187 13.0 22.6 0.00 0.00 0.00 75 1008.9
20260505195741 61 195 16.5 24.3 0.00 0.00 0.00 76 1008.8
20260505195239 61 179 14.8 20.0 0.00 0.00 0.00 76 1008.9
20260505194736 61 181 8.7 20.9 0.00 0.00 0.00 76 1008.9
20260505194232 61 199 13.0 22.6 0.00 0.00 0.00 76 1009.2
20260505193728 61 192 11.3 19.1 0.00 0.00 0.00 75 1009.1
20260505193226 62 191 11.3 20.0 0.00 0.00 0.00 75 1009.1
20260505192724 62 207 13.0 24.3 0.00 0.00 0.00 74 1009.5
20260505192221 62 212 13.0 18.2 0.00 0.00 0.00 75 1009.8
20260505191720 62 181 15.6 18.2 0.00 0.00 0.00 75 1009.7
20260505191218 61 184 7.8 20.0 0.00 0.00 0.00 75 1009.6
20260505190714 61 193 9.6 20.9 0.00 0.00 0.00 76 1009.8
20260505190213 61 188 11.3 19.1 0.00 0.00 0.00 76 1009.9
20260505185710 61 181 7.0 21.7 0.00 0.00 0.00 77 1010.0
20260505185207 61 194 12.2 16.5 0.00 0.00 0.00 76 1010.2
20260505184703 61 208 6.1 16.5 0.00 0.00 0.00 76 1010.2
20260505184201 61 198 9.6 20.0 0.00 0.00 0.00 76 1010.2
20260505183657 61 185 12.2 17.4 0.00 0.00 0.00 76 1010.2
20260505183155 61 184 13.9 18.2 0.00 0.00 0.00 75 1010.3
20260505182650 61 187 11.3 17.4 0.00 0.00 0.00 76 1010.3
20260505182148 61 186 11.3 19.1 0.00 0.00 0.00 76 1010.5
20260505181644 61 191 6.1 16.5 0.00 0.00 0.00 77 1010.5
20260505181142 61 202 9.6 13.9 0.00 0.00 0.00 76 1010.7
20260505180638 61 196 8.7 15.6 0.00 0.00 0.00 76 1010.6
20260505180135 61 196 7.0 18.2 0.00 0.00 0.00 76 1010.9
20260505175631 61 185 6.1 14.8 0.00 0.00 0.00 76 1010.7
20260505175128 61 210 9.6 13.9 0.00 0.00 0.00 76 1010.8
20260505174624 61 183 7.8 14.8 0.00 0.00 0.00 75 1010.9
20260505174120 62 212 12.2 13.0 0.00 0.00 0.00 74 1011.2
20260505173617 62 230 3.5 11.3 0.00 0.00 0.00 75 1011.0
20260505173114 62 210 6.1 8.7 0.00 0.00 0.00 75 1011.0
20260505172612 62 172 2.6 10.4 0.00 0.00 0.00 75 1011.3
20260505172108 62 252 5.2 12.2 0.00 0.00 0.00 76 1011.3
20260505171603 61 204 4.3 11.3 0.00 0.00 0.00 77 1011.4
20260505171100 62 222 4.3 9.6 0.00 0.00 0.00 75 1011.4
20260505170557 62 216 5.2 7.8 0.00 0.00 0.00 75 1011.4
20260505170053 62 211 6.1 9.6 0.00 0.00 0.00 74 1011.7
20260505165548 62 194 4.3 10.4 0.00 0.00 0.00 75 1011.3
20260505165045 61 200 2.6 10.4 0.00 0.00 0.00 77 1011.3
20260505164540 61 219 6.1 11.3 0.00 0.00 0.00 76 1011.5
20260505164038 61 177 6.1 15.6 0.00 0.00 0.00 76 1011.5
20260505163537 62 187 4.3 12.2 0.00 0.00 0.00 75 1011.6
20260505163033 61 201 7.8 13.9 0.00 0.00 0.00 76 1011.5
20260505162527 62 171 7.8 10.4 0.00 0.00 0.00 75 1011.6
20260505162024 62 187 9.6 11.3 0.00 0.00 0.00 74 1011.5
20260505161520 62 183 6.1 11.3 0.00 0.00 0.00 75 1011.7
20260505161017 64 194 3.5 7.0 0.00 0.00 0.00 73 1012.0
20260505160516 62 208 3.5 8.7 0.00 0.00 0.00 75 1011.8
20260505152951 63 200 4.3 9.6 0.00 0.00 0.00 75 1011.9
20260505152448 62 194 3.5 5.2 0.00 0.00 0.00 76 1012.1
20260505151944 62 195 2.6 7.8 0.00 0.00 0.00 75 1012.0
20260505151439 62 189 4.3 7.0 0.00 0.00 0.00 75 1012.2
20260505150937 62 206 2.6 9.6 0.00 0.00 0.00 76 1012.3
20260505150434 62 176 3.5 7.0 0.00 0.00 0.00 75 1012.1
20260505140404 60 220 7.8 8.7 0.00 0.00 0.00 80 1012.3
20260505124817 58 182 7.8 8.7 0.00 0.00 0.00 82 1012.1
20260505124314 59 190 7.8 8.7 0.00 0.00 0.00 82 1012.0
20260505123810 58 191 3.5 9.6 0.00 0.00 0.00 83 1012.0
20260505123307 58 183 5.2 7.8 0.00 0.00 0.00 84 1011.9
20260505122803 58 212 6.1 7.8 0.00 0.00 0.00 84 1012.0
20260505122301 57 195 4.3 7.0 0.00 0.00 0.00 85 1012.0
20260505121757 57 195 2.6 7.8 0.00 0.00 0.00 85 1012.0
20260505121254 57 186 2.6 5.2 0.00 0.00 0.00 86 1011.8
20260505120750 57 179 2.6 4.3 0.00 0.00 0.00 85 1011.9
20260505120246 57 232 4.3 5.2 0.00 0.00 0.00 86 1011.9
20260505115745 57 201 2.6 7.8 0.00 0.00 0.00 85 1012.1
20260505115243 57 195 1.7 7.8 0.00 0.00 0.00 86 1012.1
20260505114740 57 227 5.2 5.2 0.00 0.00 0.00 86 1012.3
20260505114236 56 228 0.0 3.5 0.00 0.00 0.00 88 1012.1
20260505113733 56 219 2.6 3.5 0.00 0.00 0.00 88 1012.0
20260505113230 56 195 2.6 4.3 0.00 0.00 0.00 88 1012.1
20260505112725 56 176 2.6 2.6 0.00 0.00 0.00 88 1012.1
20260505112224 55 223 2.6 4.3 0.00 0.00 0.00 88 1011.8
20260505111723 56 220 5.2 5.2 0.00 0.00 0.00 88 1012.2
20260505111219 56 176 1.7 4.3 0.00 0.00 0.00 87 1012.2
20260505110715 56 196 1.7 2.6 0.00 0.00 0.00 88 1012.4
20260505110213 55 220 1.7 5.2 0.00 0.00 0.00 88 1012.2